User: anonymous   Login
Location: Unspecified
(0.0000°N, 0.0000°E)
Time: 09:10:05
(UTC+02:00)
Language:

Cosmos 1953 Rocket - Orbit

View from above orbital plane
View from above orbital plane
View from above satellite
View from above satellite

Ground track
Ground track

The orbit data is extracted from the following two-line orbital elements,

1 19211U 88050B   16120.37481793  .00000154  00000-0  16000-4 0  9998
2 19211  82.5283 229.4086 0022914  44.1235 350.9698 14.82890948505465
Epoch (UTC): 29 April 2016 08:59:44
Eccentricity: 0.0022914
inclination: 82.5283°
perigee height: 604 km
apogee height: 636 km
right ascension of ascending node: 229.4086°
argument of perigee: 44.1235°
revolutions per day: 14.82890948
mean anomaly at epoch: 350.9698°
orbit number at epoch: 50546

The dashed part of the orbit path shows where the satellite is in the earth's shadow,  

DLR